When you browse on this site, cookies collect data to enhance your experience and personalize the content and advertising you see.
Visit our Privacy Policy to learn more. By continuing to use the site, you agree to this use of cookies and data.
  • Em Portugal
  • Lista de países
  • Para 7 dias
  • Temperatura da água
  • Mapas de satélite
  • Mapa do tempo
  • Widgets de tempo
  • user-avatar
    Iniciar Sessão

    Previsão horária em Córdoba

    Hoje, 15 Dezembro, Sábado

    Tempo Temperatura Precipitação Vento Pressão Humidade
    00:00 +18°C° 0 mm 2 m/s 725 mmHg 54%
    01:00 +19°C° 0 mm 1 m/s 725 mmHg 53%
    02:00 +18°C° 0 mm 1 m/s 725 mmHg 53%
    03:00 +18°C° 0 mm 1 m/s 725 mmHg 52%
    04:00 +18°C° 0 mm 1 m/s 725 mmHg 51%
    05:00 +17°C° 0 mm 2 m/s 725 mmHg 50%
    06:00 +19°C° 0 mm 2 m/s 726 mmHg 44%
    07:00 +21°C° 0 mm 2 m/s 726 mmHg 38%
    08:00 +24°C° 0 mm 2 m/s 727 mmHg 33%
    09:00 +25°C° 0 mm 3 m/s 727 mmHg 30%
    10:00 +26°C° 0 mm 3 m/s 727 mmHg 28%
    11:00 +28°C° 0 mm 4 m/s 727 mmHg 25%
    12:00 +28°C° 0 mm 4 m/s 726 mmHg 25%
    13:00 +29°C° 0 mm 4 m/s 725 mmHg 25%
    14:00 +30°C° 0 mm 4 m/s 725 mmHg 25%
    15:00 +30°C° 0 mm 4 m/s 724 mmHg 26%
    16:00 +30°C° 0 mm 4 m/s 723 mmHg 28%
    17:00 +29°C° 0 mm 4 m/s 723 mmHg 29%
    18:00 +27°C° 0 mm 3 m/s 723 mmHg 35%
    19:00 +25°C° 0 mm 3 m/s 723 mmHg 41%
    20:00 +23°C° 0 mm 2 m/s 723 mmHg 47%
    21:00 +21°C° 0 mm 2 m/s 723 mmHg 49%
    22:00 +22°C° 0 mm 1 m/s 724 mmHg 50%
    23:00 +21°C° 0 mm 1 m/s 724 mmHg 52%

    Amanhã, 16 Dezembro, Domingo

    Tempo Temperatura Precipitação Vento Pressão Humidade
    00:00 +21°C° 0 mm 1 m/s 724 mmHg 53%
    01:00 +21°C° 0 mm 1 m/s 723 mmHg 54%
    02:00 +21°C° 0 mm 1 m/s 723 mmHg 55%
    03:00 +20°C° 0 mm 1 m/s 723 mmHg 57%
    04:00 +20°C° 0 mm 1 m/s 723 mmHg 58%
    05:00 +20°C° 0 mm 1 m/s 722 mmHg 60%
    06:00 +22°C° 0 mm 1 m/s 723 mmHg 57%
    07:00 +24°C° 0 mm 1 m/s 723 mmHg 54%
    08:00 +27°C° 0 mm 2 m/s 723 mmHg 50%
    09:00 +29°C° 0 mm 2 m/s 723 mmHg 48%
    10:00 +30°C° 0 mm 3 m/s 722 mmHg 47%
    11:00 +33°C° 0 mm 3 m/s 722 mmHg 45%
    12:00 +34°C° 0 mm 3 m/s 722 mmHg 44%
    13:00 +35°C° 0 mm 4 m/s 721 mmHg 44%
    14:00 +36°C° 0 mm 4 m/s 720 mmHg 43%
    15:00 +35°C° 0 mm 4 m/s 720 mmHg 46%
    16:00 +35°C° 0 mm 4 m/s 719 mmHg 48%
    17:00 +34°C° 0 mm 4 m/s 719 mmHg 51%
    18:00 +32°C° 0 mm 4 m/s 719 mmHg 59%
    19:00 +30°C° 0 mm 3 m/s 719 mmHg 68%
    20:00 +28°C° 0 mm 3 m/s 719 mmHg 76%
    21:00 +27°C° 0 mm 2 m/s 720 mmHg 78%
    22:00 +27°C° 0 mm 2 m/s 720 mmHg 81%
    23:00 +26°C° 0 mm 1 m/s 720 mmHg 83%

    Depois de amanhã, 17 Dezembro, Segunda-feira

    Tempo Temperatura Precipitação Vento Pressão Humidade
    00:00 +26°C° 0.3 mm 1 m/s 720 mmHg 84%
    01:00 +26°C° 0.3 mm 1 m/s 719 mmHg 85%
    02:00 +25°C° 0.3 mm 1 m/s 719 mmHg 86%
    03:00 +25°C° 0.3 mm 1 m/s 719 mmHg 87%
    04:00 +25°C° 0.3 mm 1 m/s 718 mmHg 88%
    05:00 +25°C° 0.3 mm 1 m/s 718 mmHg 89%
    06:00 +27°C° 0 mm 1 m/s 719 mmHg 80%
    07:00 +29°C° 0 mm 1 m/s 719 mmHg 71%
    08:00 +31°C° 0 mm 1 m/s 720 mmHg 62%
    09:00 +34°C° 1 mm 2 m/s 720 mmHg 57%
    10:00 +35°C° 1 mm 2 m/s 720 mmHg 53%
    11:00 +36°C° 1 mm 3 m/s 720 mmHg 48%
    12:00 +34°C° 4.2 mm 4 m/s 720 mmHg 54%
    13:00 +33°C° 4.2 mm 4 m/s 720 mmHg 60%
    14:00 +32°C° 4.2 mm 5 m/s 720 mmHg 66%
    15:00 +29°C° 1.8 mm 5 m/s 719 mmHg 70%
    16:00 +28°C° 1.8 mm 6 m/s 719 mmHg 73%
    17:00 +27°C° 1.8 mm 7 m/s 719 mmHg 77%
    18:00 +26°C° 0.3 mm 6 m/s 719 mmHg 79%
    19:00 +24°C° 0.3 mm 6 m/s 720 mmHg 81%
    20:00 +23°C° 0.3 mm 6 m/s 721 mmHg 83%
    21:00 +23°C° 0.2 mm 5 m/s 722 mmHg 84%
    22:00 +22°C° 0.2 mm 5 m/s 722 mmHg 85%
    23:00 +22°C° 0.2 mm 5 m/s 723 mmHg 86%

    18 Dezembro, Terça-feira

    Tempo Temperatura Precipitação Vento Pressão Humidade
    00:00 +22°C° 0.1 mm 5 m/s 723 mmHg 87%
    01:00 +22°C° 0.1 mm 5 m/s 723 mmHg 88%
    02:00 +21°C° 0.1 mm 5 m/s 722 mmHg 88%
    03:00 +21°C° 0.2 mm 5 m/s 723 mmHg 89%
    04:00 +20°C° 0.2 mm 5 m/s 723 mmHg 89%
    05:00 +20°C° 0.2 mm 5 m/s 723 mmHg 89%
    06:00 +20°C° 0.1 mm 5 m/s 724 mmHg 88%
    07:00 +20°C° 0.1 mm 4 m/s 725 mmHg 86%
    08:00 +19°C° 0.1 mm 4 m/s 725 mmHg 85%
    09:00 +21°C° 0 mm 4 m/s 725 mmHg 79%
    10:00 +22°C° 0 mm 4 m/s 726 mmHg 73%
    11:00 +23°C° 0 mm 4 m/s 726 mmHg 67%
    12:00 +25°C° 0 mm 4 m/s 725 mmHg 64%
    13:00 +26°C° 0 mm 4 m/s 725 mmHg 62%
    14:00 +26°C° 0 mm 3 m/s 724 mmHg 59%
    15:00 +27°C° 0 mm 3 m/s 724 mmHg 59%
    16:00 +27°C° 0 mm 3 m/s 724 mmHg 59%
    17:00 +27°C° 0 mm 3 m/s 723 mmHg 58%
    18:00 +26°C° 0 mm 2 m/s 723 mmHg 65%
    19:00 +24°C° 0 mm 2 m/s 723 mmHg 71%
    20:00 +23°C° 0 mm 1 m/s 723 mmHg 77%
    21:00 +22°C° 0 mm 1 m/s 723 mmHg 80%
    22:00 +22°C° 0 mm 1 m/s 723 mmHg 82%
    23:00 +21°C° 0 mm 1 m/s 724 mmHg 84%

    19 Dezembro, Quarta-feira

    Tempo Temperatura Precipitação Vento Pressão Humidade
    00:00 +20°C° 0 mm 2 m/s 723 mmHg 86%
    01:00 +20°C° 0 mm 2 m/s 723 mmHg 88%
    02:00 +20°C° 0 mm 2 m/s 722 mmHg 91%
    03:00 +20°C° 0 mm 2 m/s 722 mmHg 92%
    04:00 +20°C° 0 mm 2 m/s 722 mmHg 93%
    05:00 +19°C° 0 mm 2 m/s 722 mmHg 94%
    06:00 +21°C° 0 mm 2 m/s 722 mmHg 86%
    07:00 +22°C° 0 mm 3 m/s 722 mmHg 79%
    08:00 +25°C° 0 mm 3 m/s 722 mmHg 72%
    09:00 +26°C° 0 mm 3 m/s 722 mmHg 67%
    10:00 +27°C° 0 mm 3 m/s 721 mmHg 63%
    11:00 +29°C° 0 mm 4 m/s 721 mmHg 58%
    12:00 +29°C° 0.2 mm 4 m/s 720 mmHg 56%
    13:00 +30°C° 0.2 mm 4 m/s 720 mmHg 54%
    14:00 +32°C° 0.2 mm 4 m/s 719 mmHg 51%
    15:00 +30°C° 0.5 mm 4 m/s 719 mmHg 56%
    16:00 +29°C° 0.5 mm 4 m/s 718 mmHg 60%
    17:00 +29°C° 0.5 mm 4 m/s 718 mmHg 65%
    18:00 +27°C° 1.9 mm 4 m/s 718 mmHg 72%
    19:00 +26°C° 1.9 mm 3 m/s 718 mmHg 78%
    20:00 +24°C° 1.9 mm 3 m/s 717 mmHg 85%
    21:00 +24°C° 0.4 mm 3 m/s 718 mmHg 86%
    22:00 +22°C° 0.4 mm 3 m/s 719 mmHg 86%
    23:00 +23°C° 0.4 mm 2 m/s 720 mmHg 86%

    20 Dezembro, Quinta-feira

    Tempo Temperatura Precipitação Vento Pressão Humidade
    00:00 +23°C° 1.3 mm 2 m/s 720 mmHg 84%
    01:00 +21°C° 1.3 mm 2 m/s 720 mmHg 83%
    02:00 +21°C° 1.3 mm 2 m/s 719 mmHg 81%
    03:00 +21°C° 0.1 mm 3 m/s 720 mmHg 78%
    04:00 +21°C° 0.1 mm 3 m/s 720 mmHg 76%
    05:00 +20°C° 0.1 mm 3 m/s 721 mmHg 73%
    06:00 +21°C° 0 mm 4 m/s 722 mmHg 71%
    07:00 +22°C° 0 mm 5 m/s 722 mmHg 68%
    08:00 +22°C° 0 mm 7 m/s 723 mmHg 65%
    09:00 +24°C° 0 mm 7 m/s 723 mmHg 58%
    10:00 +27°C° 0 mm 7 m/s 724 mmHg 51%
    11:00 +28°C° 0 mm 7 m/s 724 mmHg 43%
    12:00 +29°C° 0 mm 7 m/s 723 mmHg 41%
    13:00 +29°C° 0 mm 6 m/s 723 mmHg 39%
    14:00 +30°C° 0 mm 6 m/s 723 mmHg 37%
    15:00 +29°C° 0 mm 5 m/s 722 mmHg 38%
    16:00 +29°C° 0 mm 5 m/s 722 mmHg 38%
    17:00 +29°C° 0 mm 4 m/s 722 mmHg 39%
    18:00 +27°C° 0 mm 3 m/s 722 mmHg 44%
    19:00 +25°C° 0 mm 2 m/s 722 mmHg 49%
    20:00 +22°C° 0 mm 1 m/s 722 mmHg 54%
    21:00 +22°C° 0 mm 1 m/s 722 mmHg 55%
    22:00 +21°C° 0 mm 1 m/s 723 mmHg 56%
    23:00 +21°C° 0 mm 1 m/s 723 mmHg 57%
    Mostrar mais